This demonstration page uses our WeatherBlox Daily Observations layout. Learn more.

Left ArrowRight Arrow

36.19886, -115.1175

Hourly Observations for November 8, 2021

Temp ( °F °C ) Dew Point ( °F °C ) Humidity (%) Winds ( mph kmh ) Pressure ( in mb ) Visibility ( mi km ) Precip ( " mm )
12:53 am 00:53 Clear 67 19.4 26 -3.3 21 21 NNW 5 7 29.93 1014 10 16 0.00 0.00
1:53 am 01:53 Clear 64 17.8 26 -3.3 24 24 NNW 7 11 29.95 1014 10 16 0.00 0.00
2:53 am 02:53 Clear 64 17.8 23 -5 21 21 NNW 8 13 29.95 1014 10 16 0.00 0.00
3:53 am 03:53 Clear 60 15.6 23 -5 24 24 NW 6 9 29.96 1015 10 16 0.00 0.00
4:53 am 04:53 Clear 61 16.1 25 -3.9 25 25 WNW 5 7 29.98 1015 10 16 0.00 0.00
5:53 am 05:53 Clear 59 15 25 -3.9 27 27 NW 7 11 29.99 1016 10 16 0.00 0.00
6:53 am 06:53 Sunny 60 15.6 26 -3.3 27 27 NW 5 7 30.00 1016 10 16 0.00 0.00
7:53 am 07:53 Sunny 61 16.1 27 -2.8 27 27 NW 5 7 30.03 1017 10 16 0.00 0.00
8:53 am 08:53 Sunny 67 19.4 28 -2.2 23 23 NE 3 6 30.04 1017 10 16 0.00 0.00
9:53 am 09:53 Sunny 70 21.1 29 -1.7 22 22 Calm 30.03 1017 10 16 0.00 0.00
10:53 am 10:53 Sunny 73 22.8 30 -1.1 20 20 E 6 9 30.01 1016 10 16 0.00 0.00
11:53 am 11:53 Sunny 76 24.4 32 0 20 20 undefined N/A 29.99 1016 10 16 0.00 0.00
12:53 pm 12:53 Sunny 78 25.6 32 0 19 19 SE 8 13 29.96 1015 10 16 0.00 0.00
1:53 pm 13:53 Sunny 81 27.2 21 -6.1 11 11 SSW 15 24 29.95 1014 10 16 0.00 0.00
2:53 pm 14:53 Sunny 80 26.7 19 -7.2 10 10 SSW 8 13 29.95 1014 10 16 0.00 0.00
3:53 pm 15:53 Sunny 80 26.7 12 -11.1 7 7 SSW 16 26 29.95 1014 10 16 0.00 0.00
4:53 pm 16:53 Clear 76 24.4 15 -9.4 10 10 SW 7 11 29.98 1015 10 16 0.00 0.00
5:53 pm 17:53 Clear 73 22.8 18 -7.8 12 12 SSE 7 11 30.01 1016 10 16 0.00 0.00
6:53 pm 18:53 Clear 71 21.7 19 -7.2 14 14 SSW 10 17 30.01 1016 10 16 0.00 0.00
7:53 pm 19:53 Clear 69 20.6 20 -6.7 15 15 SSE 7 11 30.03 1017 10 16 0.00 0.00
8:53 pm 20:53 Clear 69 20.6 17 -8.3 14 14 SSW 5 7 30.03 1017 10 16 0.00 0.00
9:53 pm 21:53 Clear 69 20.6 18 -7.8 14 14 SSW 7 11 30.03 1017 10 16 0.00 0.00
10:53 pm 22:53 Clear 68 20 19 -7.2 15 15 Calm 30.03 1017 10 16 0.00 0.00
11:53 pm 23:53 Clear 62 16.7 21 -6.1 21 21 NNW 6 9 30.04 1017 10 16 0.00 0.00

Powered by AerisWeather